Regional Weather Roundup
Issued by NWS

Home | Current Version | Previous Version | Graphics & Text | Print | Product List | Glossary On
Versions: 1 2 3 4 5 6 7 8 9 10 11 12 13 14 15 16 17 18 19 20 21 22 23 24 25 26 27 28 29 30 31 32 33 34 35 36 37 38 39 40 41 42 43 44 45 46 47 48 49 50
000
ASUS45 KABQ 010810
RWRNM
NEW MEXICO REGIONAL WEATHER ROUNDUP
NATIONAL WEATHER SERVICE ALBUQUERQUE NM
200 AM MDT SAT OCT 01 2016

NOTE: "FAIR" MEANS FEW OR NO CLOUDS BELOW 12,000 FEET AGL WITH NO
       SIGNIFICANT WEATHER OR OBSTRUCTIONS TO VISION.

      THIS PRODUCT IS RELEASED AS TWO VERSIONS.  ONE VERSION NEAR
      THE TOP OF THE HOUR CONTAINING PRELIMINARY DATA FROM ALBUQUERQUE
      AND OTHER STATIONS.  A FINAL VERSION WITH ADDITIONAL DATA IS
      ISSUED ABOUT 10 MINUTES AFTER THE HOUR.

NMZ501-503-504-510>518-010900-
NORTHWEST PLATEAU/NORTHCENTRAL MOUNTAINS

CITY           SKY/WX    TMP DP  RH WIND       PRES   REMARKS
FARMINGTON     FAIR      50  47  89 NE6       30.22R
LOS ALAMOS     FAIR      56  31  38 CALM      30.31R
SANTA FE       FAIR      55  43  63 N9        30.24S
TAOS           FAIR      48  30  49 CALM      30.31R
ANGEL FIRE     FAIR      35  32  87 CALM      30.38S

$$
NMZ402-403-502-505>509-010900-
WESTCENTRAL MOUNTAINS/SOUTHWEST MOUNTAINS

CITY           SKY/WX    TMP DP  RH WIND       PRES   REMARKS
GALLUP         FAIR      46  43  89 E3        30.30S
SILVER CITY    FAIR      54  52  94 N3        30.24S

$$
NMZ407-409-411-412-010900-
SOUTHERN DESERTS

CITY           SKY/WX    TMP DP  RH WIND       PRES   REMARKS
DEMING         FAIR      60  56  86 W3        30.19S
LAS CRUCES     FAIR      62  59  91 W5        30.19F
HOLLOMAN AFB   FAIR      63  57  80 SE3       30.15S
ALAMOGORDO     FAIR      61  57  88 SE6       30.17F
T OR C         FAIR      63  58  83 CALM      30.19S

$$
NMZ519>523-010900-
CENTRAL VALLEYS/CENTRAL HIGHLANDS

CITY           SKY/WX    TMP DP  RH WIND       PRES   REMARKS
ALBUQUERQUE    FAIR      60  53  77 E5        30.22R
DOUBLE EAGLE   FAIR      54  46  72 CALM      30.25R
MORIARTY ARPT  FAIR      51  44  76 CALM      30.27R
CLINES CORNERS FAIR      51  45  79 W13       30.29R
BELEN          FAIR      62  58  88 CALM      30.21S
SOCORRO        FAIR      59  56  88 S3        30.20R

$$
NMZ524>526-539-540-010900-
SOUTHCENTRAL MOUNTAINS

CITY           SKY/WX    TMP DP  RH WIND       PRES   REMARKS
RUIDOSO        FAIR      54  46  76 SW7       30.31S

$$
NMZ527>531-010900-
NORTHEAST HIGHLANDS/NORTHEAST PLAINS

CITY           SKY/WX    TMP DP  RH WIND       PRES   REMARKS
LAS VEGAS      FAIR      49  41  74 N10       30.26R
RATON          FAIR      55  44  66 N8        30.23F
CLAYTON        FAIR      55  49  80 CALM      30.14S

$$
NMZ532>537-010900-
EASTCENTRAL PLAINS

CITY           SKY/WX    TMP DP  RH WIND       PRES   REMARKS
TUCUMCARI      FAIR      62  51  67 W7        30.11R
CANNON AFB     FAIR      54  53  95 SE5       30.14S
CLOVIS AIRPORT FAIR      54  46  76 SE6       30.14S

$$
NMZ028-029-538-010900-
SOUTHEAST PLAINS

CITY           SKY/WX    TMP DP  RH WIND       PRES   REMARKS
ROSWELL        FAIR      55  51  86 S3        30.11R
ARTESIA        FAIR      57  57 100 SW7       30.11S
CARLSBAD       FAIR      58  56  93 SW5       30.10R
HOBBS          FAIR      55  55 100 S3        30.15S


$$




USA.gov is the U.S. government's official web portal to all federal, state and local government web resources and services.